Location: TAAA CAC
(31.8680°N, 109.5150°W)
Time: 23:39:52
(UTC-07:00)

Hubble Space Telescope - Pass Details

Date: 26 February 2024
Orbit: 513 x 517 km, 28.5° (Epoch: 21 April)

Event Time Altitude Azimuth Distance (km) Brightness Sun altitude
Rises 18:34:38 0° 242° (WSW) 2,625 5.9 -5.3°
Reaches altitude 10° 18:36:59 10° 234° (SW) 1,740 4.5 -5.8°
Maximum altitude 18:40:41 35° 167° (SSE) 839 1.7 -6.6°
Drops below altitude 10° 18:44:23 10° 100° (E) 1,743 2.8 -7.4°
Enters shadow 18:44:42 - 99° (E) 1,855 2.9 -7.4°
